sat.trackr.live / text

‹ back to catalog

STARLINK-31798

NORAD 59635 · 2024-082E

PAYLOAD ACTIVE UNKNOWN

§ Identity

Operator
Country
US
Launch date
2024-05-03
Launch site
AFETR
Launch vehicle
Mass (kg)
RCS (m²)

Purposes: comms

External: N2YO · Heavens-Above · Gunter

§ Orbital elements

Epoch: 2026-05-25T03:55:33.716352Z

Period
94.27 min
Inclination
43.0043°
Eccentricity
0.0001047
Mean motion
15.27582691 rev/d
Perigee alt
482.3 km
Apogee alt
483.8 km
Semi-major
6,861.2 km
B*
1.8872e-5
RAAN
68.2686°
Arg perigee
271.3647°
Mean anomaly
88.7085°
Rev number
11,650

§ Raw data

STARLINK-317981 59635U 24082E   26145.16358468  .00000257  00000+0  18872-4 0  99962 59635  43.0043  68.2686 0001047 271.3647  88.7085 15.27582691116507

JSON: /api/v1/satellites/59635 · /tle

For live sub-satellite position, see the globe view (requires WebGL).

§ Visibility from observer

Set your observer location to see the next 7 days of passes ≥ 10°. The values pass through the URL so the page stays shareable.

No JS? Fill the form by hand. The geolocation button needs JavaScript.